823  
ASUS42 KTBW 160210  
RWRFL  
FLORIDA REGIONAL WEATHER ROUNDUP  
NATIONAL WEATHER SERVICE TAMPA BAY RUSKIN FL  
1000 PM EDT MON SEP 15 2014  
 
NOTE: "FAIR" INDICATES FEW OR NO CLOUDS BELOW 12,000 FEET WITH NO  
SIGNIFICANT WEATHER AND/OR S TO VISIBILITY
.  
 
 
FLZ001>010-012>015-112-114-115-160300-  
PANHANDLE FLORIDA  
 
CITY SKY/WX TMP DP RH WIND PRES REMARKS
 
PENSACOLA PTCLDY 76 75 97 NW3 30.08R  
PENSACOLA NAS MOCLDY 78 75 90 NW3 30.08R  
MILTON NAS MOCLDY 76 73 91 CALM 30.09R  
CRESTVIEW PTCLDY 77 76 96 CALM 30.11R  
DUKE FIELD MOCLDY 80 79 98 SW3 30.09R  
VALPARAISO MOCLDY 82 76 82 W1 30.08R  
PANAMA CITY MOCLDY 79 76 90 CALM 30.08R  
TYNDALL AFB CLOUDY 82 76 81 W12 30.09R  
APALACHICOLA CLOUDY 80 74 81 SW10 30.11R  
 
STATION/POSITION SKY/WX TEMP WIND PRES WAVE SWELL
 
AIR SEA DIR/SP/G HT/PER HT/PER  
(F) (DEG/KT/KT) (MB) (FT/S) (FT/S)  
30.1N 87.6W 84 86 240/ 10/ 12 1018.4R 3/ 6 3/ 6  
29.2N 88.2W 82 86 250/ 10/ 16 1019.1R 3/ 7 3/ 7  
28.8N 86.0W 84 86 250/ 14/ 16 1019.1 4/ 6 2/ 6  
PANAMA CITY BEAC 84 87 250/ 10/ 12 1018.7R  
CAPE SAN BLAS NOT AVBL  
TOWER C 73 250/ 19/ 22 1020.3R  
28.5N 84.5W 84 85 220/ 8/ 10 1020.0R 3/ 7 2/ 7  
 

 
FLZ011-016>038-118-127-128-134-139-239-160300-  
NORTH FLORIDA  
 
CITY SKY/WX TMP DP RH WIND PRES REMARKS
 
MARIANNA CLOUDY 78 78 100 CALM 30.09R  
TALLAHASSEE CLOUDY 78 74 87 SE3 30.12R  
PERRY MOCLDY 73 72 94 CALM 30.12S  
CROSS CITY N/A N/A N/A N/A MISG 30.12R  
LAKE CITY FAIR 73 73 100 CALM 30.14S  
GAINESVILLE CLOUDY 75 73 93 CALM 30.14R  
MAYPORT NAS CLOUDY 77 74 90 CALM 30.12S  
JACKSONVILLE LGT RAIN 75 75 100 CALM 30.12S  
JAX NAS CLOUDY 82 76 81 NW3 30.14R  
JAX CRAIG CLOUDY 77 74 90 CALM 30.13R  
JAX CECIL CLOUDY 75 75 100 CALM 30.14R  
FERNANDINA BEA FAIR 77 72 83 CALM 30.11S  
ST AUGUSTINE CLOUDY 78 74 87 SW3 30.14R  
 
STATION/POSITION SKY/WX TEMP WIND PRES WAVE SWELL
 
AIR SEA DIR/SP/G HT/PER HT/PER  
(F) (DEG/KT/KT) (MB) (FT/S) (FT/S)  
SHELL POINT 82 230/ 8/ 10 N/A  
KEATON BEACH 83 270/ 6/ 7 1020.0R  
CEDAR KEY 82 310/ 2/ 3 1020.3R  
FERNANDINA 76 87 290/ 6/ 8 1019.5S  
30.7N 81.3W 84 N/A 2/ 3  
MAYPORT 77 85 310/ 3/ 5 N/A  
31.4N 80.9W 83 85 130/ 6/ 8 1020.2R 2/ 6 2/ 6  
ST AUGUSTINE 79 230/ 1/ 2 1020.9R  
 

 
FLZ040-043>046-052-053-057-058-063-144-160300-  
INTERIOR CENTRAL FLORIDA  
 
CITY SKY/WX TMP DP RH WIND PRES REMARKS
 
OCALA MOCLDY 75 73 94 CALM 30.15R  
THE VILLAGES N/A 79 75 89 MISG 30.05R FOG  
LEESBURG MOCLDY 79 73 82 NE5 30.15R  
SANFORD CLOUDY 81 71 71 CALM 30.14R  
ORLANDO EXEC CLOUDY 81 73 76 E5 30.15R  
ORLANDO INTL CLOUDY 81 74 79 E5 30.15R  
KISSIMMEE CLOUDY 82 75 78 E3 30.15R  
WINTER HAVEN PTCLDY 81 72 74 E7 30.16R  
BARTOW FAIR 81 72 74 NE5 30.16R  
OKEECHOBEE PTCLDY 77 72 83 MISG 30.14R  
 

 
FLZ041-047-054-059-064-141-147-160300-  
EAST CENTRAL FLORIDA  
 
CITY SKY/WX TMP DP RH WIND PRES REMARKS
 
DAYTONA BEACH MOCLDY 77 76 96 SE3 30.14R  
DELAND MOCLDY 77 73 88 S3 30.15R  
NEW SMYRNA BEA CLOUDY 79 75 89 CALM 30.14R  
JFK SPACE CTR MOCLDY 77 73 88 CALM 30.14R  
CAPE CANAVERAL PTCLDY 77 71 80 SE2 30.13R  
PATRICK AFB PTCLDY 83 75 75 E6 30.14R  
MELBOURNE MOCLDY 83 75 77 SE6 30.13R  
VERO BEACH CLEAR 79 73 82 SE3 30.13R  
FT PIERCE PTCLDY 77 73 87 CALM 30.13R  
STUART CLEAR 79 72 78 SE3 30.14S  
 
STATION/POSITION SKY/WX TEMP WIND PRES WAVE SWELL
 
AIR SEA DIR/SP/G HT/PER HT/PER  
(F) (DEG/KT/KT) (MB) (FT/S) (FT/S)  
28.5N 80.2W 84 85 120/ 4/ 4 1020.6R  
28.9N 78.5W 83 85 190/ 4/ 6 1020.5S 2/ 8 2/ 8  
TRIDENT PIER 82 86 120/ 2/ 5 1019.8S  
28.4N 80.5W 85 N/A 1/ 8  
27.6N 80.2W 84 N/A 1/ 8  
 

 
FLZ050-056-061-142-242-148-248-149-249-151-251-155-255-  
160-260-160300-  
WEST CENTRAL FLORIDA  
 
CITY SKY/WX TMP DP RH WIND PRES REMARKS
 
CRYSTAL RIVER FAIR 77 73 88 CALM 30.13S  
INVERNESS FAIR 77 64 65 CALM 30.14R  
BROOKSVILLE CLEAR 76 72 87 CALM 30.15R  
ZEPHYRHILLS FAIR 75 73 94 CALM 30.16R  
CLEARWATER MOCLDY 82 74 76 VRB5 30.14R  
TAMPA INTL PTCLDY 81 73 76 N3 30.14R  
TAMPA EXEC CLEAR 77 73 88 CALM 30.14R  
PLANT CITY CLEAR 79 77 94 NE3 30.17R  
MACDILL AFB CLEAR 80 76 86 NW2 30.14R  
ST PETERSBURG CLOUDY 84 74 71 N3 30.12R  
SARASOTA MOCLDY 81 75 82 N5 30.12R  
VENICE N/A N/A N/A N/A MISG N/A  
 
STATION/POSITION SKY/WX TEMP WIND PRES WAVE SWELL
 
AIR SEA DIR/SP/G HT/PER HT/PER  
(F) (DEG/KT/KT) (MB) (FT/S) (FT/S)  
CEDAR KEY 82 310/ 2/ 3 1020.3R  
28.5N 84.5W 84 85 220/ 8/ 10 1020.0R 3/ 7 2/ 7  
27.3N 84.3W 86 N/A 3/ 6  
CLEARWATER BEACH NOT AVBL  
MIDDLE TAMPA BAY 84 330/ 6/ 8 1020.6R  
VENICE 83 88 10/ 6/ 7 1019.8R  
 

 
FLZ066-069-070-075>078-162-262-165-265-160300-  
SOUTHWEST FLORIDA AND KEYS  
 
CITY SKY/WX TMP DP RH WIND PRES REMARKS
 
PUNTA GORDA CLEAR 81 72 74 VRB5 30.15R  
FT MYERS CLOUDY 85 70 60 CALM 30.12R  
SOUTHWEST INTL PTCLDY 81 68 64 SE5 30.12R  
NAPLES CLEAR 84 76 76 SE3 30.12R  
MARCO ISLAND CLOUDY 82 73 74 SE5 30.13R  
MARATHON CLEAR 83 76 79 E6 30.12R  
KEY WEST NAS CLOUDY 83 74 74 E8 30.11S  
KEY WEST INTL CLOUDY 84 74 71 E7 30.12R  
 
STATION/POSITION SKY/WX TEMP WIND PRES WAVE SWELL
 
AIR SEA DIR/SP/G HT/PER HT/PER  
(F) (DEG/KT/KT) (MB) (FT/S) (FT/S)  
VENICE 83 88 10/ 6/ 7 1019.8R  
NAPLES 85 90 360/ 3/ 7 1020.5S  
DRY TORTUGAS 85 120/ 9/ 11 1019.5R  
NW FL BAY 85 120/ 8/ 10 1019.5R  
SAND KEY 84 90/ 11/ 13 1019.8R  
SOMBRERO KEY 84 90/ 9/ 10 1020.6R  
LONG KEY 84 85 100/ 8/ 9 1020.4R  
MOLASSES REEF 83 85 70/ 8/ 10 1020.1R  
 

 
FLZ067-068-071>074-168-172>174-160300-  
SOUTHEAST FLORIDA  
 
CITY SKY/WX TMP DP RH WIND PRES REMARKS
 
W PALM BEACH PTCLDY 83 74 74 E7 30.13R  
FT LAUDER-EXEC PTCLDY 82 76 81 E7 30.13R  
FT LAUDERDALE PTCLDY 84 74 71 E8 30.13R  
POMPANO BEACH CLEAR 83 72 69 E5 30.13R  
PEMBROKE PINES CLEAR 82 74 76 E6 30.14R  
OPA LOCKA CLEAR 82 74 76 NE3 30.14R  
MIAMI PTCLDY 83 73 72 E8 30.13R  
WEST KENDALL CLEAR 79 73 82 E6 30.13R  
HOMESTEAD CLEAR 81 75 83 E3 30.13R  
 
STATION/POSITION SKY/WX TEMP WIND PRES WAVE SWELL
 
AIR SEA DIR/SP/G HT/PER HT/PER  
(F) (DEG/KT/KT) (MB) (FT/S) (FT/S)  
PORT EVERGLADES 83 80/ 5/ 8 1020.2  
VIRGINIA KEY 84 85 70/ 7/ 8 N/A  
LAKE WORTH 83 86 100/ 7/ 10 1020.2R  
FOWEY ROCKS 83 85 70/ 7/ 9 1020.8R  
SETTLEMENT POINT 83 50/ 7/ 7 1021.3R  
 

 
 
CLICK HERE TO GO TO PREVIOUS BULLETINS.

The Nexlab FL Page Main Text Page